Weather Roundup
Issued by NWS Chicago, IL

Home | Current Version | Previous Version | Text Only | Print | Product List | Glossary Off
Versions: 1 2 3 4 5 6 7 8 9 10 11 12 13 14 15 16 17 18 19 20 21 22 23 24 25 26 27 28 29 30 31 32 33 34 35 36 37 38 39 40 41 42 43 44 45 46 47 48 49 50

000
NZUS59 KLOT 250606
HRRLOT

CHICAGO AREA WEATHER ROUNDUP
NATIONAL WEATHER SERVICE CHICAGO/ROMEOVILLE IL
1200 AM CST THU DEC 25 2014

NOTE: "FAIR" INDICATES FEW OR NO CLOUDS BELOW 12,000 FEET WITH NO
SIGNIFICANT WEATHER AND/OR OBSTRUCTIONS TO VISIBILITY.

* THESE STATIONS ARE NOT UNDER NWS QUALITY CONTROL. THEY ALSO MAY NOT
  REPORT WEATHER SUCH AS PRECIPITATION OR FOG.

ILZ005-006-012>014-019>023-250700-
NORTHEAST ILLINOIS

CITY           SKY/WX    TMP DP  RH WIND       PRES   REMARKS
OHARE          CLOUDY    36  31  82 W15       29.63R
6HR MIN TEMP:  36; 6HR MAX TEMP:  37; 6HR PCP: TRACE;

MIDWAY         CLOUDY    38  33  82 W15       29.65R
6HR MIN TEMP:  38; 6HR MAX TEMP:  39; 6HR PCP: TRACE;

AURORA         CLOUDY    36  31  82 W17       29.67R
6HR MIN TEMP:  36; 6HR MAX TEMP:  36;

LANSING*       CLOUDY    36  33  87 W14G23    29.66R
JOLIET*        CLOUDY    36  32  87 W8        29.68R
WAUKEGAN       CLOUDY    35  31  85 W8G16     29.61R WCI  29
6HR MIN TEMP:  35; 6HR MAX TEMP:  37;

DUPAGE AIRPORT CLOUDY    36  31  82 W15       29.65R
6HR MIN TEMP:  35; 6HR MAX TEMP:  36; 6HR PCP: TRACE;

WHEELING       CLOUDY    37  31  78 W15       29.64R
6HR MIN TEMP:  36; 6HR MAX TEMP:  38; 6HR PCP: TRACE;

KANKAKEE*      CLOUDY    36  33  90 W12       29.70R
MORRIS*        CLOUDY    36  35  95 W14       29.68R
LEWIS AIRPORT* CLOUDY    36  32  87 W14G20    29.67R
NORTHERLY IS     N/A     37  31  79 W10         N/A
$$

WIZ051-052-058>065-066-070>072-250700-
SOUTHEAST WISCONSIN

CITY           SKY/WX    TMP DP  RH WIND       PRES   REMARKS
MILWAUKEE      CLOUDY    36  29  75 W12       29.59R
6HR MIN TEMP:  36; 6HR MAX TEMP:  37; 6HR PCP: TRACE;

KENOSHA*       CLOUDY    36  31  82 W13       29.60R
RACINE*        CLOUDY    36  30  79 W13G21    29.60R
BURLINGTON     CLOUDY    33  31  92 W8        29.61R WCI  26
WAUKESHA       CLOUDY    32  30  93 W12       29.59R WCI  23
WEST BEND      CLOUDY    34  30  86 W13       29.57R WCI  25
$$

INZ001>003-010>013-019-020-250700-
NORTHWEST INDIANA

CITY           SKY/WX    TMP DP  RH WIND       PRES   REMARKS
GARY*          CLOUDY    38  31  76 W14G20    29.65R
6HR MIN TEMP:  38; 6HR MAX TEMP:  39;

MICHIGAN CITY* NOT AVBL
RENSSELAER*    NOT AVBL
VALPARAISO     CLOUDY    36  33  89 W12       29.65R
$$

LMZ740>746-250700-
SOUTHERN LAKE MICHIGAN

STATION/POSITION TIME  SKY/WX   TEMP WIND        PRES    VSBY
                                AIR  DIR/SP/G
                 (UTC)          (F)  (DEG/KT/KT) (MB)    (MI)
HARRISON CRIB    0600            37  280/ 19/ 24   N/A
BURNHAM HARBOR   0600            37  280/  9/ 16   N/A
CALUMET HARBOR   0600            37  250/  9/ 13 1002.6R
BURNS HARBOR     NOT AVBL
MICHIGAN CITY    0600            37  240/ 22/ 24   N/A
$$

ABBREVIATIONS USED IN REMARKS
   TC - TEMPERATURE IN CELSIUS
  WCI - WIND CHILL INDEX
   HX - HEAT INDEX
  VSB - VISIBILITY
$$



USA.gov is the U.S. government's official web portal to all federal, state and local government web resources and services.